Location: Charbonni�res
(45.9952°N, 2.9982°E)
Time: 16:27:46
(UTC+00:00)

Lacrosse 4 Rocket - Pass Details

Date: 29 November 2020
Orbit: 538 x 620 km, 68.0° (Epoch: 17 January)

Event Time Altitude Azimuth Distance (km) Brightness Sun altitude
Exits shadow 05:14:51 28° 231° (SW) 1,125 2.5 -19.0°
Drops below altitude 10° 05:18:00 10° 188° (S) 1,953 4.2 -18.4°
Sets 05:20:28 0° 177° (S) 2,862 5.2 -18.0°
